"MES";"TRAMO_HORARIO";"NUMERO_AGENTES";"RECIBIDAS";"CONTESTADAS";"NIVEL_SERVICIO";"MEDIA_DIARIA_ATENCIONES";"TIEMPO_MEDIO_ATENCION";"HOMBRE";"MUJER";"SEXO_DESCONOCIDO";"ESPA�OL";"EUSKERA";;
"01/01/2020";"08:00";"26";"360";"356";"98,89 %";"17";"00:02:44";"87";"218";"21";"278";"48";;
"01/01/2020";"08:30";"28";"1.062";"1.042";"98,12 %";"50";"00:03:16";"242";"624";"98";"820";"144";;
"01/01/2020";"09:00";"30";"2.179";"1.943";"89,17 %";"93";"00:03:02";"439";"1.177";"233";"1.640";"209";;
"01/01/2020";"09:30";"30";"3.140";"2.335";"74,36 %";"111";"00:03:22";"594";"1.330";"295";"1.955";"264";;
"01/01/2020";"10:00";"37";"3.744";"2.371";"63,33 %";"113";"00:03:21";"570";"1.433";"267";"2.022";"248";;
"01/01/2020";"10:30";"37";"4.550";"2.027";"44,55 %";"97";"00:03:18";"505";"1.261";"212";"1.745";"233";;
"01/01/2020";"11:00";"37";"4.137";"2.941";"71,09 %";"140";"00:03:15";"765";"1.787";"326";"2.547";"331";;
"01/01/2020";"11:30";"37";"5.679";"1.818";"32,01 %";"87";"00:03:06";"489";"969";"260";"1.521";"197";;
"01/01/2020";"12:00";"36";"4.540";"2.787";"61,39 %";"133";"00:03:32";"780";"1.699";"338";"2.501";"316";;
"01/01/2020";"12:30";"36";"4.243";"2.822";"66,51 %";"134";"00:03:19";"737";"1.669";"324";"2.406";"324";;
"01/01/2020";"13:00";"36";"3.634";"2.588";"71,22 %";"123";"00:03:10";"687";"1.604";"293";"2.264";"320";;
"01/01/2020";"13:30";"37";"3.051";"2.417";"79,22 %";"115";"00:03:01";"571";"1.462";"256";"2.012";"277";;
"01/01/2020";"14:00";"37";"1.665";"1.545";"92,79 %";"74";"00:03:08";"361";"1.060";"221";"1.461";"181";;
"01/01/2020";"14:30";"37";"1.088";"1.056";"97,06 %";"50";"00:03:23";"293";"793";"155";"1.073";"168";;
"01/01/2020";"15:00";"36";"959";"834";"86,97 %";"40";"00:02:37";"232";"556";"117";"801";"104";;
"01/01/2020";"15:30";"29";"992";"764";"77,02 %";"36";"00:03:27";"184";"478";"99";"651";"110";;
"01/01/2020";"16:00";"29";"992";"787";"79,33 %";"37";"00:03:16";"198";"530";"80";"690";"118";;
"01/01/2020";"16:30";"30";"1.101";"722";"65,58 %";"34";"00:03:37";"212";"427";"79";"641";"77";;
"01/01/2020";"17:00";"28";"1.229";"602";"48,98 %";"29";"00:03:39";"166";"341";"56";"494";"69";;
"01/01/2020";"17:30";"26";"1.026";"532";"51,85 %";"27";"00:03:32";"161";"337";"47";"440";"105";;
"01/01/2020";"18:00";"25";"965";"468";"48,50 %";"23";"00:03:21";"134";"294";"60";"390";"98";;
"01/01/2020";"18:30";"23";"731";"422";"57,73 %";"21";"00:03:37";"111";"250";"49";"340";"70";;
"01/01/2020";"19:00";"22";"421";"314";"74,58 %";"16";"00:03:39";"73";"206";"30";"262";"47";;
"01/02/2020";"08:00";"25";"406";"403";"99,26 %";"20";"00:02:34";"94";"239";"35";"312";"56";;
"01/02/2020";"08:30";"28";"1.149";"1.142";"99,39 %";"57";"00:03:00";"253";"649";"151";"917";"136";;
"01/02/2020";"09:00";"29";"2.151";"1.940";"90,19 %";"97";"00:03:08";"433";"1.115";"255";"1.608";"195";;
"01/02/2020";"09:30";"30";"3.143";"2.303";"73,27 %";"115";"00:03:19";"547";"1.366";"294";"1.952";"255";;
"01/02/2020";"10:00";"36";"3.602";"2.419";"67,16 %";"121";"00:03:15";"633";"1.358";"332";"2.069";"254";;
"01/02/2020";"10:30";"36";"4.386";"1.968";"44,76 %";"98";"00:03:12";"448";"1.130";"245";"1.623";"200";;
"01/02/2020";"11:00";"37";"3.947";"2.875";"72,64 %";"143";"00:03:32";"757";"1.840";"416";"2.656";"357";;
"01/02/2020";"11:30";"37";"4.937";"1.847";"37,39 %";"92";"00:03:07";"486";"999";"258";"1.536";"207";;
"01/02/2020";"12:00";"36";"4.240";"2.837";"66,84 %";"142";"00:03:16";"776";"1.697";"382";"2.527";"328";;
"01/02/2020";"12:30";"36";"3.496";"2.977";"84,93 %";"148";"00:03:17";"771";"1.710";"416";"2.579";"318";;
"01/02/2020";"13:00";"36";"3.004";"2.514";"83,49 %";"125";"00:03:29";"670";"1.474";"340";"2.227";"257";;
"01/02/2020";"13:30";"37";"2.591";"2.246";"86,57 %";"112";"00:03:14";"555";"1.315";"292";"1.933";"229";;
"01/02/2020";"14:00";"37";"1.602";"1.552";"96,82 %";"78";"00:02:50";"371";"1.008";"273";"1.464";"188";;
"01/02/2020";"14:30";"37";"1.081";"1.061";"97,87 %";"53";"00:03:10";"280";"712";"157";"1.019";"130";;
"01/02/2020";"15:00";"34";"860";"738";"85,12 %";"37";"00:02:44";"160";"496";"142";"716";"82";;
"01/02/2020";"15:30";"27";"869";"714";"81,01 %";"35";"00:03:39";"153";"446";"108";"617";"90";;
"01/02/2020";"16:00";"27";"1.008";"764";"75,00 %";"38";"00:03:16";"150";"476";"101";"658";"69";;
"01/02/2020";"16:30";"28";"934";"722";"76,55 %";"36";"00:03:49";"168";"478";"106";"675";"77";;
"01/02/2020";"17:00";"27";"939";"554";"58,79 %";"28";"00:03:50";"129";"318";"77";"452";"72";;
"01/02/2020";"17:30";"25";"1.018";"503";"49,41 %";"25";"00:03:44";"127";"316";"65";"414";"94";;
"01/02/2020";"18:00";"24";"917";"408";"44,49 %";"20";"00:03:51";"122";"216";"32";"300";"70";;
"01/02/2020";"18:30";"21";"763";"430";"55,96 %";"21";"00:04:30";"107";"264";"56";"366";"61";;
"01/02/2020";"19:00";"21";"379";"329";"86,28 %";"16";"00:03:31";"78";"242";"45";"302";"63";;
"01/03/2020";"08:00";"23";"719";"354";"61,89 %";"21";"00:02:35";"97";"197";"26";"275";"45";;
"01/03/2020";"08:00";"23";"378";"354";"29,10 %";"11";"00:02:35";"97";"197";"26";"275";"45";;
"01/03/2020";"08:30";"25";"757";"770";"35,01 %";"26";"00:02:30";"185";"434";"82";"606";"95";;
"01/03/2020";"08:30";"25";"1.557";"770";"64,55 %";"48";"00:02:30";"185";"434";"82";"606";"95";;
"01/03/2020";"09:00";"29";"2.674";"1.114";"58,83 %";"75";"00:02:20";"257";"617";"129";"845";"158";;
"01/03/2020";"09:00";"29";"1.303";"1.114";"36,91 %";"48";"00:02:20";"257";"617";"129";"845";"158";;
"01/03/2020";"09:30";"30";"1.575";"1.241";"40,13 %";"63";"00:02:30";"314";"697";"169";"1.009";"171";;
"01/03/2020";"09:30";"30";"3.428";"1.241";"54,40 %";"89";"00:02:30";"314";"697";"169";"1.009";"171";;
"01/03/2020";"10:00";"33";"3.759";"1.393";"56,24 %";"101";"00:02:37";"341";"752";"252";"1.164";"181";;
"01/03/2020";"10:00";"33";"1.637";"1.393";"44,90 %";"74";"00:02:37";"341";"752";"252";"1.164";"181";;
"01/03/2020";"10:30";"35";"1.708";"1.119";"45,84 %";"78";"00:02:54";"284";"620";"171";"931";"144";;
"01/03/2020";"10:30";"35";"4.368";"1.119";"43,11 %";"90";"00:02:54";"284";"620";"171";"931";"144";;
"01/03/2020";"11:00";"35";"4.261";"1.596";"56,35 %";"114";"00:02:50";"393";"950";"292";"1.455";"180";;
"01/03/2020";"11:00";"35";"1.839";"1.596";"44,86 %";"82";"00:02:50";"393";"950";"292";"1.455";"180";;
"01/03/2020";"11:30";"35";"4.637";"1.144";"41,95 %";"93";"00:02:47";"283";"624";"236";"1.009";"134";;
"01/03/2020";"11:30";"35";"1.881";"1.144";"43,33 %";"82";"00:02:47";"283";"624";"236";"1.009";"134";;
"01/03/2020";"12:00";"35";"1.849";"1.525";"42,02 %";"78";"00:03:11";"388";"844";"243";"1.284";"191";;
"01/03/2020";"12:00";"35";"4.164";"1.525";"54,90 %";"109";"00:03:11";"388";"844";"243";"1.284";"191";;
"01/03/2020";"12:30";"34";"3.767";"1.660";"63,87 %";"115";"00:02:53";"471";"876";"256";"1.418";"185";;
"01/03/2020";"12:30";"34";"1.741";"1.660";"44,00 %";"77";"00:02:53";"471";"876";"256";"1.418";"185";;
"01/03/2020";"13:00";"34";"1.430";"1.389";"46,08 %";"66";"00:02:54";"331";"818";"255";"1.241";"163";;
"01/03/2020";"13:00";"34";"3.216";"1.389";"63,34 %";"97";"00:02:54";"331";"818";"255";"1.241";"163";;
"01/03/2020";"13:30";"35";"2.500";"1.240";"74,60 %";"93";"00:03:01";"328";"744";"165";"1.074";"163";;
"01/03/2020";"13:30";"35";"1.177";"1.240";"54,12 %";"64";"00:03:01";"328";"744";"165";"1.074";"163";;
"01/03/2020";"14:00";"33";"783";"794";"37,93 %";"30";"00:02:39";"169";"505";"137";"714";"97";;
"01/03/2020";"14:00";"33";"1.579";"794";"68,71 %";"54";"00:02:39";"169";"505";"137";"714";"97";;
"01/03/2020";"14:30";"33";"1.109";"510";"61,50 %";"34";"00:02:53";"131";"354";"76";"489";"72";;
"01/03/2020";"14:30";"33";"594";"510";"29,12 %";"17";"00:02:53";"131";"354";"76";"489";"72";;
"01/03/2020";"15:00";"30";"553";"412";"24,41 %";"14";"00:02:41";"111";"274";"56";"383";"58";;
"01/03/2020";"15:00";"30";"1.047";"412";"50,62 %";"26";"00:02:41";"111";"274";"56";"383";"58";;
"01/03/2020";"15:30";"18";"543";"383";"24,86 %";"14";"00:04:28";"100";"226";"42";"332";"36";;
"01/03/2020";"15:30";"18";"1.028";"383";"49,32 %";"25";"00:04:28";"100";"226";"42";"332";"36";;
"01/03/2020";"16:00";"16";"559";"376";"25,22 %";"14";"00:02:59";"123";"217";"42";"332";"50";;
"01/03/2020";"16:00";"16";"1.073";"376";"47,90 %";"26";"00:02:59";"123";"217";"42";"332";"50";;
"01/03/2020";"16:30";"18";"584";"383";"23,46 %";"14";"00:02:55";"99";"231";"31";"306";"55";;
"01/03/2020";"16:30";"18";"1.103";"383";"46,42 %";"26";"00:02:55";"99";"231";"31";"306";"55";;
"01/03/2020";"17:00";"18";"534";"299";"21,35 %";"11";"00:03:08";"95";"185";"25";"262";"43";;
"01/03/2020";"17:00";"18";"1.048";"299";"38,93 %";"20";"00:03:08";"95";"185";"25";"262";"43";;
"01/03/2020";"17:30";"14";"1.044";"291";"41,48 %";"22";"00:03:04";"72";"178";"22";"224";"48";;
"01/03/2020";"17:30";"14";"552";"291";"25,72 %";"14";"00:03:04";"72";"178";"22";"224";"48";;
"01/03/2020";"18:00";"14";"467";"256";"29,55 %";"14";"00:03:25";"82";"147";"23";"208";"44";;
"01/03/2020";"18:00";"14";"850";"256";"45,18 %";"20";"00:03:25";"82";"147";"23";"208";"44";;
"01/03/2020";"18:30";"14";"749";"240";"45,26 %";"18";"00:03:27";"85";"112";"18";"194";"21";;
"01/03/2020";"18:30";"14";"394";"240";"25,63 %";"10";"00:03:27";"85";"112";"18";"194";"21";;
"01/03/2020";"19:00";"11";"500";"190";"55,20 %";"15";"00:03:54";"46";"96";"21";"135";"28";;
"01/03/2020";"19:00";"11";"273";"190";"32,23 %";"9";"00:03:54";"46";"96";"21";"135";"28";;
"01/04/2020";"08:00";"57";"338";"11";"66,27 %";"12";"00:00:05";"65";"113";"8";"157";"29";;
"01/04/2020";"08:30";"84";"767";"102";"80,05 %";"32";"00:00:06";"170";"359";"30";"480";"79";;
"01/04/2020";"09:00";"88";"1.518";"106";"78,00 %";"62";"00:00:09";"309";"675";"75";"924";"135";;
"01/04/2020";"09:30";"89";"2.041";"63";"85,79 %";"92";"00:00:05";"475";"1.007";"121";"1.384";"219";;
"01/04/2020";"10:00";"92";"2.534";"74";"84,85 %";"113";"00:00:03";"663";"1.131";"169";"1.703";"260";;
"01/04/2020";"10:30";"92";"2.905";"139";"88,43 %";"135";"00:00:05";"777";"1.356";"182";"1.978";"337";;
"01/04/2020";"11:00";"91";"3.222";"108";"87,12 %";"148";"00:00:04";"924";"1.516";"174";"2.252";"362";;
"01/04/2020";"11:30";"93";"3.403";"111";"84,28 %";"151";"00:00:06";"900";"1.505";"211";"2.290";"326";;
"01/04/2020";"12:00";"93";"3.371";"82";"84,81 %";"150";"00:00:04";"855";"1.582";"187";"2.274";"350";;
"01/04/2020";"12:30";"90";"3.192";"114";"91,26 %";"153";"00:00:05";"813";"1.566";"157";"2.250";"286";;
"01/04/2020";"13:00";"89";"2.754";"122";"93,32 %";"135";"00:00:04";"788";"1.463";"160";"2.142";"269";;
"01/04/2020";"13:30";"92";"2.223";"91";"95,55 %";"112";"00:00:05";"751";"1.326";"166";"1.986";"257";;
"01/04/2020";"14:00";"91";"1.531";"35";"68,39 %";"55";"00:00:02";"602";"1.131";"149";"1.634";"248";;
"01/04/2020";"14:30";"77";"975";"17";"78,26 %";"40";"00:00:05";"335";"486";"85";"785";"121";;
"01/04/2020";"15:00";"70";"785";"21";"77,20 %";"32";"00:00:07";"186";"362";"43";"508";"83";;
"01/04/2020";"15:30";"71";"725";"15";"91,31 %";"35";"00:00:07";"174";"358";"38";"497";"73";;
"01/04/2020";"16:00";"70";"650";"35";"92,15 %";"32";"00:00:15";"216";"364";"45";"554";"71";;
"01/04/2020";"16:30";"73";"745";"20";"88,32 %";"35";"00:00:16";"201";"361";"30";"518";"74";;
"01/04/2020";"17:00";"67";"693";"24";"92,21 %";"34";"00:00:13";"203";"338";"53";"516";"78";;
"01/04/2020";"17:30";"70";"663";"8";"89,59 %";"31";"00:00:06";"171";"365";"49";"515";"70";;
"01/04/2020";"18:00";"70";"566";"17";"89,05 %";"27";"00:00:09";"162";"293";"37";"437";"55";;
"01/04/2020";"18:30";"69";"458";"11";"94,32 %";"23";"00:00:09";"146";"246";"38";"370";"60";;
"01/04/2020";"19:00";"65";"389";"17";"100,26 %";"21";"00:00:10";"144";"224";"30";"347";"51";;
"01/05/2020";"08:00";"67";"835";"347";"77,01 %";"32";"00:00:42";"194";"353";"40";"519";"68";;
"01/05/2020";"08:30";"90";"1.806";"535";"81,73 %";"74";"00:00:28";"360";"826";"101";"1.114";"173";;
"01/05/2020";"09:00";"92";"3.090";"549";"80,00 %";"124";"00:00:29";"641";"1.283";"160";"1.823";"261";;
"01/05/2020";"09:30";"92";"3.952";"546";"81,86 %";"162";"00:00:23";"813";"1.715";"251";"2.459";"320";;
"01/05/2020";"10:00";"95";"4.818";"508";"77,56 %";"187";"00:00:24";"947";"1.884";"237";"2.710";"358";;
"01/05/2020";"10:30";"96";"5.710";"487";"64,99 %";"186";"00:00:30";"1.004";"1.988";"251";"2.860";"383";;
"01/05/2020";"11:00";"97";"6.235";"552";"60,77 %";"189";"00:00:28";"1.031";"2.108";"300";"3.083";"356";;
"01/05/2020";"11:30";"94";"6.265";"535";"61,90 %";"194";"00:00:26";"1.069";"2.162";"284";"3.113";"402";;
"01/05/2020";"12:00";"97";"6.235";"630";"59,87 %";"187";"00:00:26";"1.089";"2.116";"286";"3.108";"383";;
"01/05/2020";"12:30";"94";"5.520";"639";"69,00 %";"190";"00:00:23";"1.058";"2.082";"266";"3.003";"403";;
"01/05/2020";"13:00";"93";"4.532";"607";"78,07 %";"177";"00:00:27";"1.043";"1.983";"247";"2.937";"336";;
"01/05/2020";"13:30";"97";"3.286";"686";"91,02 %";"150";"00:00:22";"944";"1.829";"238";"2.656";"355";;
"01/05/2020";"14:00";"96";"1.972";"354";"89,35 %";"88";"00:00:15";"1.016";"2.150";"281";"3.081";"366";;
"01/05/2020";"14:30";"70";"1.343";"281";"90,47 %";"61";"00:00:24";"472";"859";"151";"1.320";"162";;
"01/05/2020";"15:00";"62";"1.129";"23";"86,71 %";"49";"00:00:21";"392";"710";"96";"1.047";"151";;
"01/05/2020";"15:30";"51";"1.139";"0";"91,83 %";"52";"00:00:00";"326";"674";"67";"920";"147";;
"01/05/2020";"16:00";"49";"1.131";"0";"89,21 %";"50";"00:00:00";"261";"568";"57";"772";"114";;
"01/05/2020";"16:30";"52";"1.066";"0";"88,74 %";"47";"00:00:00";"316";"578";"92";"869";"117";;
"01/05/2020";"17:00";"48";"1.047";"0";"86,63 %";"45";"00:00:00";"310";"529";"78";"823";"94";;
"01/05/2020";"17:30";"48";"992";"0";"88,31 %";"44";"00:00:00";"244";"483";"65";"689";"103";;
"01/05/2020";"18:00";"49";"792";"0";"90,15 %";"36";"00:00:00";"243";"434";"68";"657";"88";;
"01/05/2020";"18:30";"48";"718";"0";"89,83 %";"32";"00:00:00";"209";"411";"51";"599";"72";;
"01/05/2020";"19:00";"48";"509";"0";"104,91 %";"27";"00:00:00";"220";"322";"59";"525";"76";;
"01/06/2020";"08:00";"44";"1.595";"574";"69,84 %";"51";"00:01:30";"259";"596";"62";"801";"116";;
"01/06/2020";"08:30";"47";"3.435";"831";"65,97 %";"103";"00:01:12";"547";"1.223";"158";"1.678";"250";;
"01/06/2020";"09:00";"48";"6.602";"812";"49,27 %";"148";"00:01:12";"738";"1.640";"167";"2.249";"296";;
"01/06/2020";"09:30";"48";"9.796";"834";"33,98 %";"151";"00:01:10";"785";"1.686";"201";"2.350";"322";;
"01/06/2020";"10:00";"50";"12.559";"860";"25,03 %";"143";"00:01:04";"776";"1.644";"184";"2.302";"302";;
"01/06/2020";"10:30";"50";"14.590";"684";"20,39 %";"135";"00:01:18";"749";"1.610";"197";"2.260";"296";;
"01/06/2020";"11:00";"50";"15.784";"729";"18,66 %";"134";"00:01:24";"750";"1.548";"193";"2.221";"270";;
"01/06/2020";"11:30";"50";"15.745";"713";"18,70 %";"134";"00:01:12";"726";"1.515";"192";"2.173";"260";;
"01/06/2020";"12:00";"50";"15.540";"876";"18,78 %";"133";"00:01:25";"779";"1.882";"232";"2.568";"325";;
"01/06/2020";"12:30";"48";"14.944";"873";"20,41 %";"139";"00:01:33";"774";"1.746";"224";"2.467";"277";;
"01/06/2020";"13:00";"47";"13.557";"843";"23,24 %";"143";"00:01:24";"843";"1.800";"212";"2.550";"305";;
"01/06/2020";"13:30";"51";"9.139";"827";"40,37 %";"168";"00:01:12";"932";"2.142";"240";"2.910";"404";;
"01/06/2020";"14:00";"51";"4.363";"855";"73,14 %";"145";"00:00:57";"1.058";"2.385";"349";"3.389";"403";;
"01/06/2020";"14:30";"52";"2.784";"761";"78,09 %";"99";"00:00:57";"885";"2.027";"319";"2.893";"338";;
"01/06/2020";"15:00";"49";"2.839";"68";"36,56 %";"47";"00:00:23";"585";"1.118";"190";"1.668";"225";;
"01/06/2020";"15:30";"34";"3.077";"0";"28,76 %";"40";"00:00:00";"311";"646";"106";"972";"91";;
"01/06/2020";"16:00";"35";"3.062";"0";"29,03 %";"40";"00:00:00";"340";"721";"69";"1.012";"118";;
"01/06/2020";"16:30";"32";"3.315";"0";"25,13 %";"38";"00:00:00";"291";"536";"61";"792";"96";;
"01/06/2020";"17:00";"29";"3.081";"0";"24,21 %";"34";"00:00:00";"315";"651";"107";"972";"101";;
"01/06/2020";"17:30";"28";"3.011";"0";"22,55 %";"31";"00:00:00";"282";"572";"96";"852";"98";;
"01/06/2020";"18:00";"30";"2.518";"0";"26,73 %";"31";"00:00:00";"236";"466";"59";"677";"84";;
"01/06/2020";"18:30";"29";"2.097";"0";"35,43 %";"34";"00:00:00";"210";"439";"54";"647";"56";;
"01/06/2020";"19:00";"29";"1.251";"0";"61,15 %";"35";"00:00:00";"239";"439";"55";"647";"86";;
"01/07/2020";"08:00";"35";"1.912";"446";"56,96 %";"47";"00:01:38";"302";"546";"57";"802";"103";;
"01/07/2020";"08:30";"36";"4.708";"570";"34,71 %";"71";"00:01:44";"438";"869";"106";"1.237";"176";;
"01/07/2020";"09:00";"36";"9.382";"624";"17,77 %";"69";"00:01:26";"381";"908";"110";"1.193";"206";;
"01/07/2020";"09:30";"36";"12.399";"639";"14,14 %";"73";"00:01:30";"450";"952";"112";"1.339";"175";;
"01/07/2020";"10:00";"39";"14.328";"614";"12,26 %";"73";"00:01:35";"515";"964";"117";"1.428";"168";;
"01/07/2020";"10:30";"38";"16.091";"491";"10,16 %";"71";"00:01:36";"464";"915";"99";"1.289";"189";;
"01/07/2020";"11:00";"37";"16.348";"531";"10,60 %";"72";"00:01:50";"483";"958";"127";"1.381";"187";;
"01/07/2020";"11:30";"38";"16.850";"409";"9,15 %";"64";"00:01:24";"424";"854";"96";"1.213";"161";;
"01/07/2020";"12:00";"39";"16.805";"619";"9,27 %";"65";"00:01:27";"445";"994";"126";"1.386";"179";;
"01/07/2020";"12:30";"36";"16.337";"635";"9,98 %";"68";"00:01:40";"467";"878";"129";"1.312";"162";;
"01/07/2020";"13:00";"35";"14.285";"632";"12,59 %";"75";"00:01:40";"526";"998";"116";"1.435";"205";;
"01/07/2020";"13:30";"38";"11.145";"656";"20,01 %";"97";"00:01:28";"567";"1.146";"157";"1.634";"236";;
"01/07/2020";"14:00";"38";"5.415";"594";"44,04 %";"104";"00:01:35";"617";"1.338";"230";"1.938";"247";;
"01/07/2020";"14:30";"38";"2.961";"565";"67,85 %";"84";"00:01:17";"614";"1.368";"206";"1.941";"247";;
"01/07/2020";"15:00";"36";"2.692";"46";"27,75 %";"31";"00:00:38";"388";"767";"123";"1.125";"153";;
"01/07/2020";"15:30";"27";"2.920";"1";"20,14 %";"24";"00:00:02";"168";"340";"41";"480";"69";;
"01/07/2020";"16:00";"25";"2.877";"0";"19,85 %";"24";"00:00:00";"171";"339";"27";"470";"67";;
"01/07/2020";"16:30";"23";"3.034";"0";"18,82 %";"25";"00:00:00";"217";"427";"68";"645";"67";;
"01/07/2020";"17:00";"22";"2.996";"0";"16,76 %";"21";"00:00:00";"119";"243";"24";"340";"46";;
"01/07/2020";"17:30";"23";"2.704";"0";"19,64 %";"21";"00:00:00";"151";"330";"40";"457";"64";;
"01/07/2020";"18:00";"23";"2.428";"0";"20,92 %";"20";"00:00:00";"174";"351";"25";"509";"41";;
"01/07/2020";"18:30";"21";"1.765";"0";"29,75 %";"23";"00:00:00";"216";"474";"46";"654";"82";;
"01/07/2020";"19:00";"21";"1.228";"0";"46,58 %";"25";"00:00:00";"202";"367";"33";"532";"70";;
"01/08/2020";"08:00";"29";"778";"650";"83,55 %";"31";;"186";"386";"38";"547";"63";;
"01/08/2020";"08:30";"31";"1.780";"1.098";"61,69 %";"52";;"347";"704";"105";"1.057";"99";;
"01/08/2020";"09:00";"29";"3.849";"1.320";"34,29 %";"63";;"388";"794";"124";"1.191";"115";;
"01/08/2020";"09:30";"32";"5.658";"1.403";"24,80 %";"67";;"402";"884";"165";"1.311";"140";;
"01/08/2020";"10:00";"33";"7.297";"1.484";"20,34 %";"71";;"395";"941";"160";"1.346";"150";;
"01/08/2020";"10:30";"34";"8.936";"1.365";"15,28 %";"65";;"371";"896";"137";"1.294";"110";;
"01/08/2020";"11:00";"34";"9.346";"1.470";"15,73 %";"70";;"451";"877";"143";"1.361";"110";;
"01/08/2020";"11:30";"32";"9.544";"1.288";"13,50 %";"61";;"423";"807";"166";"1.290";"106";;
"01/08/2020";"12:00";"31";"9.025";"1.430";"15,84 %";"68";;"423";"865";"145";"1.334";"99";;
"01/08/2020";"12:30";"32";"8.681";"1.440";"16,59 %";"69";;"384";"849";"179";"1.294";"118";;
"01/08/2020";"13:00";"31";"6.874";"1.468";"21,36 %";"70";;"400";"915";"154";"1.342";"127";;
"01/08/2020";"13:30";"33";"4.703";"1.464";"31,13 %";"70";;"424";"967";"154";"1.417";"128";;
"01/08/2020";"14:00";"32";"2.048";"1.417";"69,19 %";"67";;"381";"1.003";"161";"1.409";"136";;
"01/08/2020";"14:30";"29";"0";"43";"?";"2";;"103";"246";"86";"395";"40";;
"01/08/2020";"15:00";"4";"0";"0";"NaN";"0";;"5";"12";"4";"17";"4";;
"01/08/2020";"16:30";"1";"0";"0";"NaN";"0";;"0";"1";"0";"1";"0";;
"01/08/2020";"17:30";"1";"0";"0";"NaN";"0";;"12";"18";"6";"28";"8";;
"01/09/2020";"08:00";"38";"1.149";"848";"73,80 %";"39";;"196";"464";"50";"625";"85";;
"01/09/2020";"08:30";"41";"2.749";"1.435";"52,20 %";"65";;"356";"811";"103";"1.126";"144";;
"01/09/2020";"09:00";"41";"6.703";"1.512";"22,56 %";"69";;"416";"887";"109";"1.240";"172";;
"01/09/2020";"09:30";"43";"11.657";"1.577";"13,53 %";"72";;"405";"919";"127";"1.276";"175";;
"01/09/2020";"10:00";"42";"14.592";"1.506";"10,32 %";"68";;"415";"826";"143";"1.230";"154";;
"01/09/2020";"10:30";"43";"16.319";"1.527";"9,36 %";"69";;"434";"917";"120";"1.303";"168";;
"01/09/2020";"11:00";"45";"18.120";"1.437";"7,93 %";"65";;"374";"813";"132";"1.168";"151";;
"01/09/2020";"11:30";"45";"18.304";"1.378";"7,53 %";"63";;"375";"803";"109";"1.105";"182";;
"01/09/2020";"12:00";"42";"17.255";"1.552";"8,99 %";"71";;"454";"958";"165";"1.407";"170";;
"01/09/2020";"12:30";"43";"16.326";"1.544";"9,46 %";"70";;"454";"926";"132";"1.367";"145";;
"01/09/2020";"13:00";"43";"13.170";"1.510";"11,47 %";"69";;"447";"910";"120";"1.305";"172";;
"01/09/2020";"13:30";"43";"9.443";"1.699";"17,99 %";"77";;"484";"999";"96";"1.394";"185";;
"01/09/2020";"14:00";"45";"3.911";"2.130";"54,46 %";"97";;"575";"1.273";"178";"1.787";"239";;
"01/09/2020";"14:30";"43";"2.121";"1.544";"72,80 %";"70";;"571";"1.321";"183";"1.802";"273";;
"01/09/2020";"15:00";"28";"1.993";"513";"25,74 %";"23";;"359";"767";"85";"1.078";"133";;
"01/09/2020";"15:30";"15";"2.128";"379";"17,81 %";"17";;"110";"214";"30";"312";"42";;
"01/09/2020";"16:00";"14";"2.209";"381";"17,25 %";"17";;"79";"156";"26";"219";"42";;
"01/09/2020";"16:30";"16";"2.185";"386";"17,67 %";"18";;"110";"206";"17";"303";"30";;
"01/09/2020";"17:00";"16";"1.989";"379";"19,05 %";"17";;"113";"252";"14";"316";"63";;
"01/09/2020";"17:30";"15";"1.850";"363";"19,62 %";"16";;"101";"228";"31";"306";"54";;
"01/09/2020";"18:00";"16";"1.613";"354";"21,95 %";"16";;"100";"201";"13";"278";"36";;
"01/09/2020";"18:30";"16";"1.284";"432";"33,64 %";"20";;"94";"268";"13";"333";"42";;
"01/09/2020";"19:00";"17";"810";"456";"56,30 %";"21";;"158";"354";"27";"481";"58";;
"01/10/2020";"08:00";"39";"1.123";"947";"84,33 %";"45";;"243";"500";"25";"675";"93";;
"01/10/2020";"08:30";"38";"2.574";"1.830";"71,10 %";"87";;"555";"953";"78";"1.427";"159";;
"01/10/2020";"09:00";"38";"5.914";"2.085";"35,26 %";"99";;"570";"1.097";"79";"1.598";"148";;
"01/10/2020";"09:30";"38";"9.737";"2.116";"21,73 %";"101";;"645";"1.175";"105";"1.750";"175";;
"01/10/2020";"10:00";"40";"12.405";"2.110";"17,01 %";"100";;"643";"1.159";"100";"1.747";"155";;
"01/10/2020";"10:30";"40";"14.416";"2.002";"13,89 %";"95";;"602";"1.200";"140";"1.804";"138";;
"01/10/2020";"11:00";"40";"14.626";"1.919";"13,12 %";"91";;"605";"1.071";"128";"1.676";"128";;
"01/10/2020";"11:30";"38";"14.993";"1.909";"12,73 %";"91";;"584";"1.048";"123";"1.614";"141";;
"01/10/2020";"12:00";"40";"14.021";"2.266";"16,16 %";"108";;"747";"1.373";"180";"2.116";"184";;
"01/10/2020";"12:30";"40";"12.534";"2.260";"18,03 %";"108";;"695";"1.341";"136";"2.002";"170";;
"01/10/2020";"13:00";"40";"10.846";"2.294";"21,15 %";"109";;"804";"1.274";"150";"2.033";"195";;
"01/10/2020";"13:30";"40";"7.124";"2.516";"35,32 %";"120";;"798";"1.419";"185";"2.196";"206";;
"01/10/2020";"14:00";"39";"3.747";"2.544";"67,89 %";"121";;"907";"1.757";"159";"2.561";"262";;
"01/10/2020";"14:30";"39";"2.272";"1.955";"86,05 %";"93";;"882";"1.845";"183";"2.589";"321";;
"01/10/2020";"15:00";"37";"2.360";"623";"26,40 %";"30";;"459";"899";"109";"1.287";"180";;
"01/10/2020";"15:30";"20";"2.504";"406";"16,21 %";"19";;"197";"416";"42";"569";"86";;
"01/10/2020";"16:00";"17";"2.520";"378";"15,00 %";"18";;"128";"215";"43";"347";"39";;
"01/10/2020";"16:30";"15";"2.385";"381";"15,97 %";"18";;"112";"170";"28";"280";"30";;
"01/10/2020";"17:00";"19";"2.368";"433";"18,29 %";"21";;"167";"297";"40";"436";"68";;
"01/10/2020";"17:30";"18";"2.131";"363";"17,03 %";"17";;"117";"199";"44";"334";"26";;